Vorticity
-1 -0 3 3 2 -0 4 6 2 4 7 5 5 5 2 3 1 1 6 4 4 7 7 7 4 4 9 9 9 3 8 6 5 4 17 19 13 13 14 15 9 8 12 12 10
-0 0 1 4 3 4 4 4 -1 0 2 10 7 6 6 3 3 5 8 5 2 3 8 7 5 5 6 7 7 4 8 12 10 7 25 15 11 10 13 14 14 9 8 8 12
2 1 1 1 2 4 -0 3 1 1 4 8 4 12 11 3 4 6 11 3 2 6 3 6 6 8 7 7 5 4 6 12 8 9 15 13 11 8 11 15 14 12 9 6 8
3 2 1 2 2 2 3 3 5 0 7 7 9 6 11 2 7 4 9 6 5 4 4 5 6 5 5 8 11 9 5 6 10 10 17 11 12 8 9 14 15 13 11 9 7
3 4 3 4 5 2 5 5 5 3 5 9 9 6 6 5 1 5 5 8 4 5 4 5 6 7 5 9 10 12 10 3 10 16 15 19 16 9 10 14 14 14 7 9 9
7 6 7 5 4 6 6 6 6 5 5 7 8 11 9 9 4 4 6 5 8 7 5 4 5 8 5 5 10 12 8 6 9 12 20 21 12 9 11 13 14 12 9 11 12
5 2 1 5 12 10 10 6 5 6 6 5 10 7 9 5 4 4 4 5 4 8 4 5 3 9 5 5 7 8 10 5 7 12 17 21 10 6 10 14 14 15 18 13 16
7 10 12 7 4 6 6 6 6 6 4 5 7 9 7 6 7 6 5 8 3 5 9 8 3 4 7 5 6 10 13 8 4 9 15 18 7 6 8 12 12 10 8 9 9
5 5 5 6 4 6 7 6 7 4 8 5 5 15 9 6 6 10 5 4 6 7 7 8 5 4 4 6 6 8 10 10 8 8 12 21 6 7 7 10 7 4 5 5 7
5 6 5 5 6 5 3 5 3 2 5 9 4 9 13 6 4 8 7 2 5 9 9 5 5 7 6 6 6 8 10 11 8 9 8 16 12 7 7 9 5 5 5 1 2
6 6 6 6 6 2 4 3 6 6 8 5 6 4 5 10 1 7 8 2 9 3 6 4 6 6 7 6 5 8 8 13 8 10 12 10 18 6 9 8 9 4 5 5 7
6 5 5 7 6 3 3 4 2 2 3 4 6 8 7 2 9 7 3 4 9 4 4 3 6 5 8 8 6 7 7 10 12 11 14 7 17 17 2 4 9 8 5 6 6
8 6 7 8 7 7 5 4 1 1 1 4 3 -3 21 14 4 3 5 10 3 7 5 8 2 5 5 8 6 5 6 6 12 12 12 14 14 13 11 8 4 12 9 6 6
4 5 5 4 4 5 3 2 2 5 4 8 12 15 -2 1 9 6 7 4 6 8 9 8 2 6 6 5 7 3 6 5 8 13 10 14 9 10 13 10 11 1 12 12 9
6 4 4 5 6 9 5 6 6 -0 2 8 5 3 4 8 7 6 4 7 10 7 8 6 5 7 7 8 5 6 5 9 5 9 13 14 9 19 15 10 8 3 10 4 9
5 4 3 3 3 4 6 5 3 3 -1 2 9 6 9 9 2 7 2 8 2 7 8 2 6 3 8 5 5 7 6 6 7 7 12 17 10 15 20 17 10 5 5 5 5
3 4 4 6 9 10 9 7 5 5 5 6 8 5 6 5 5 4 4 4 8 9 7 7 7 7 4 8 6 6 8 5 7 8 10 15 10 11 9 15 18 11 7 4 5
3 6 10 13 13 13 11 11 6 9 8 9 8 4 2 3 3 6 6 5 -0 5 7 4 7 7 5 7 5 9 9 9 8 6 7 14 13 10 12 10 10 17 13 9 6
22 21 22 12 6 3 10 7 7 10 6 6 5 6 7 5 2 2 3 1 -1 7 8 6 5 5 3 7 8 8 6 8 12 9 7 11 12 14 12 9 10 14 20 22 14
1 2 8 12 14 6 9 10 17 6 11 10 7 6 9 6 5 6 4 1 8 10 8 9 10 5 8 10 9 11 5 10 8 8 8 12 14 15 6 6 8 10 14 16 16
6 11 3 -19 1 8 6 11 13 10 9 10 9 11 13 12 11 13 11 12 11 8 6 11 9 11 14 11 6 10 9 10 11 11 9 8 11 11 4 9 8 10 9 13 18
4 6 1 7 -0 3 -1 2 19 5 -7 7 3 2 9 14 14 13 14 12 10 7 9 9 7 2 8 10 11 13 12 14 11 10 6 6 8 12 10 9 7 8 6 11 13
5 6 4 4 4 6 11 8 1 2 14 -4 12 -1 14 -2 3 -2 4 2 9 10 12 9 9 9 8 10 11 10 11 5 6 7 8 10 13 16 10 8 8 7 7 8 9
6 4 4 3 3 7 10 8 8 8 11 7 8 9 15 4 7 16 17 16 16 13 11 10 11 12 12 12 13 11 11 10 9 11 14 12 7 13 9 6 7 7 9 9 12
8 7 9 11 9 10 9 15 10 11 10 5 8 9 9 12 4 5 9 9 9 12 17 13 15 17 16 22 22 17 17 13 10 13 3 9 8 11 9 7 6 5 8 10 9
5 5 9 7 9 10 8 5 6 4 5 7 6 3 6 0 5 11 13 5 2 2 2 8 13 13 14 14 13 17 17 18 18 13 6 10 15 12 11 11 8 7 6 9 9
5 6 13 8 8 8 5 6 8 8 6 5 6 8 12 7 7 7 10 -7 -3 -5 9 16 12 9 9 14 17 15 33 23 15 12 11 12 13 13 7 7 8 8 8 11 10
Height
5878 5876 5876 5875 5874 5872 5869 5867 5864 5862 5859 5856 5853 5850 5848 5845 5842 5840 5837 5834 5831 5827 5823 5819 5816 5813 5809 5806 5804 5801 5797 5792 5788 5782 5778 5775 5773 5773 5773 5774 5775 5776 5778 5779 5781
5875 5874 5873 5872 5871 5870 5868 5865 5863 5860 5857 5854 5851 5848 5846 5842 5840 5836 5834 5831 5828 5825 5821 5818 5814 5810 5806 5802 5799 5796 5792 5788 5782 5776 5772 5770 5769 5768 5768 5768 5769 5770 5773 5775 5776
5869 5869 5869 5868 5868 5866 5864 5862 5859 5856 5853 5850 5847 5844 5841 5839 5837 5833 5830 5827 5824 5821 5818 5815 5811 5808 5803 5799 5795 5792 5788 5783 5778 5771 5767 5766 5764 5764 5764 5764 5764 5766 5768 5770 5772
5865 5864 5864 5863 5863 5862 5860 5858 5855 5852 5848 5845 5842 5840 5837 5835 5834 5829 5827 5824 5820 5817 5815 5812 5808 5804 5800 5795 5791 5786 5783 5779 5774 5768 5764 5762 5760 5760 5760 5760 5761 5762 5763 5765 5768
5859 5859 5859 5858 5857 5855 5853 5852 5850 5847 5844 5842 5838 5836 5834 5832 5829 5826 5823 5820 5817 5813 5810 5808 5804 5800 5796 5792 5787 5782 5778 5774 5770 5764 5759 5757 5756 5756 5756 5757 5757 5758 5760 5761 5763
5853 5853 5852 5851 5850 5849 5847 5845 5843 5842 5839 5837 5834 5831 5829 5827 5823 5821 5818 5815 5812 5809 5806 5803 5800 5796 5792 5788 5783 5779 5774 5770 5766 5762 5756 5754 5753 5752 5753 5753 5753 5755 5756 5758 5760
5846 5846 5845 5844 5843 5842 5841 5840 5838 5835 5833 5832 5830 5827 5824 5822 5817 5815 5812 5810 5807 5805 5802 5799 5795 5792 5788 5783 5779 5774 5770 5765 5763 5759 5754 5751 5751 5750 5750 5751 5751 5752 5753 5754 5757
5840 5840 5840 5838 5837 5836 5835 5833 5832 5830 5828 5826 5824 5822 5819 5816 5813 5810 5808 5805 5802 5799 5796 5794 5790 5787 5784 5780 5775 5770 5766 5761 5759 5756 5753 5750 5748 5748 5748 5749 5749 5751 5751 5753 5755
5834 5832 5832 5831 5830 5828 5828 5827 5825 5824 5822 5820 5819 5815 5814 5812 5809 5806 5804 5800 5797 5794 5792 5788 5785 5782 5779 5775 5771 5766 5761 5758 5756 5753 5751 5747 5745 5745 5746 5746 5748 5749 5749 5751 5754
5827 5826 5825 5824 5824 5821 5820 5819 5818 5818 5817 5814 5813 5810 5808 5806 5803 5800 5797 5794 5792 5788 5787 5784 5780 5777 5774 5770 5767 5762 5757 5753 5750 5750 5748 5745 5742 5742 5742 5744 5745 5747 5748 5748 5750
5819 5819 5819 5817 5816 5816 5815 5812 5812 5812 5810 5807 5805 5803 5801 5798 5796 5794 5791 5789 5785 5782 5780 5778 5775 5771 5767 5764 5761 5758 5754 5750 5747 5745 5743 5742 5740 5739 5740 5740 5742 5742 5744 5746 5745
5810 5810 5810 5810 5809 5808 5807 5805 5803 5802 5804 5801 5800 5797 5795 5791 5789 5788 5786 5784 5780 5776 5773 5771 5769 5765 5762 5758 5755 5752 5748 5745 5742 5740 5739 5738 5736 5734 5736 5736 5737 5739 5739 5740 5742
5803 5803 5802 5801 5801 5800 5798 5796 5795 5794 5792 5791 5792 5791 5789 5785 5782 5780 5779 5776 5774 5771 5768 5764 5762 5757 5755 5752 5749 5745 5742 5738 5736 5734 5734 5732 5733 5729 5730 5731 5732 5733 5733 5735 5735
5794 5794 5794 5793 5793 5791 5790 5788 5786 5784 5782 5783 5782 5782 5781 5778 5775 5773 5771 5769 5765 5763 5761 5759 5756 5752 5748 5744 5742 5739 5735 5731 5729 5726 5727 5726 5727 5725 5723 5725 5726 5727 5727 5727 5728
5784 5785 5785 5783 5782 5781 5781 5779 5778 5776 5773 5774 5773 5772 5771 5769 5765 5764 5762 5760 5757 5754 5752 5750 5746 5744 5741 5738 5735 5733 5729 5725 5721 5719 5719 5720 5717 5719 5719 5718 5719 5718 5719 5719 5720
5773 5774 5774 5773 5772 5771 5770 5769 5769 5768 5761 5766 5764 5763 5761 5757 5755 5753 5752 5750 5747 5745 5744 5741 5739 5737 5733 5731 5727 5725 5722 5718 5713 5711 5709 5712 5709 5712 5711 5712 5710 5710 5710 5711 5712
5759 5761 5762 5761 5760 5758 5757 5758 5758 5754 5754 5754 5753 5752 5750 5749 5746 5744 5743 5741 5739 5735 5734 5732 5730 5728 5725 5721 5719 5716 5714 5710 5706 5702 5702 5702 5700 5704 5699 5701 5702 5701 5701 5702 5702
5745 5746 5748 5748 5748 5748 5747 5747 5744 5743 5742 5742 5741 5738 5737 5738 5736 5734 5732 5730 5729 5726 5724 5721 5720 5718 5716 5713 5711 5707 5705 5703 5696 5695 5692 5693 5693 5695 5691 5690 5690 5691 5691 5692 5693
5732 5732 5734 5736 5736 5737 5737 5735 5733 5734 5732 5730 5728 5725 5724 5724 5724 5722 5721 5718 5718 5716 5714 5710 5709 5707 5705 5702 5700 5698 5695 5693 5688 5684 5682 5682 5685 5684 5681 5681 5680 5681 5681 5681 5682
5721 5721 5723 5723 5723 5723 5723 5724 5724 5722 5721 5719 5716 5715 5712 5711 5710 5708 5705 5705 5703 5701 5699 5697 5695 5693 5692 5690 5688 5685 5684 5682 5678 5674 5672 5672 5674 5674 5673 5672 5671 5670 5670 5670 5671
5710 5711 5713 5712 5712 5711 5709 5711 5712 5712 5710 5707 5706 5703 5703 5699 5697 5695 5693 5692 5689 5689 5686 5684 5682 5682 5679 5678 5675 5673 5672 5669 5668 5664 5664 5662 5662 5665 5664 5662 5661 5661 5660 5659 5660
5695 5694 5700 5700 5699 5697 5699 5701 5701 5700 5698 5695 5694 5693 5691 5688 5686 5683 5682 5679 5678 5676 5674 5671 5669 5667 5666 5665 5662 5660 5659 5656 5654 5655 5653 5653 5653 5655 5654 5653 5651 5650 5650 5649 5649
5679 5680 5681 5684 5684 5686 5687 5687 5686 5686 5684 5683 5680 5680 5679 5678 5673 5672 5670 5669 5665 5663 5661 5659 5656 5654 5653 5652 5649 5647 5646 5645 5643 5643 5643 5643 5647 5646 5644 5641 5641 5641 5640 5640 5639
5666 5665 5666 5671 5673 5673 5671 5673 5672 5671 5670 5669 5668 5667 5665 5663 5662 5659 5658 5655 5653 5650 5647 5644 5643 5642 5640 5637 5636 5635 5633 5632 5631 5631 5635 5634 5636 5636 5633 5630 5632 5632 5632 5632 5631
5651 5653 5653 5655 5660 5658 5657 5657 5658 5657 5656 5655 5654 5653 5651 5650 5649 5648 5646 5643 5641 5637 5635 5632 5630 5628 5627 5624 5623 5623 5622 5620 5619 5622 5620 5627 5624 5626 5623 5621 5623 5624 5623 5623 5622
5638 5638 5639 5640 5641 5641 5641 5645 5645 5642 5641 5641 5640 5639 5638 5638 5636 5635 5635 5633 5631 5628 5625 5621 5618 5615 5613 5611 5609 5610 5611 5609 5609 5610 5610 5613 5613 5614 5614 5613 5613 5613 5613 5614 5613
5620 5623 5620 5624 5625 5625 5629 5630 5630 5627 5627 5627 5627 5625 5625 5624 5623 5623 5622 5619 5619 5616 5614 5609 5605 5603 5600 5599 5597 5597 5600 5599 5599 5599 5601 5602 5604 5604 5603 5602 5603 5604 5604 5604 5604